Preview of NWS' New Version of Forecast
This preview is not operational and should not be used for support decisions.

Regional Weather Roundup (RWR)

Issued by National Weather Service (NWS)

                            
000
ASUS43 KBIS 200002
RWRND 

NORTH DAKOTA REGIONAL WEATHER ROUNDUP
NATIONAL WEATHER SERVICE BISMARCK ND
700 PM CDT WED JUN 19 2019

NOTE: "FAIR" INDICATES FEW OR NO CLOUDS BELOW 12,000 FEET WITH NO
SIGNIFICANT WEATHER AND/OR OBSTRUCTIONS TO VISIBILITY.


NDZ001>003-009>011-017-200100-
NORTHWEST NORTH DAKOTA
  
CITY           SKY/WX    TMP DP  RH WIND       PRES   REMARKS
WILLISTON      CLOUDY    67  52  58 SE17G37   29.67F                  
6HR MIN TEMP:  67; 6HR MAX TEMP:  77;                                

MINOT          MOSUNNY   72  46  39 SE16G26   29.73S                  
MINOT AFB      SUNNY     70  46  41 SE18G24   29.72S                  
$$
 
NDZ018>021-031>035-040>046-200100-
SOUTHWEST NORTH DAKOTA
  
CITY           SKY/WX    TMP DP  RH WIND       PRES   REMARKS
BISMARCK       CLOUDY    59  55  87 E9        29.75F                  
6HR MIN TEMP:  57; 6HR MAX TEMP:  60; 6HR PCP:  0.03;                

DICKINSON      CLOUDY    60  54  80 E14       29.68F                  
GARRISON         N/A     64  53  67 SE15      29.74S                  
6HR MIN TEMP:  61; 6HR MAX TEMP:  66;                                

HETTINGER ARPT MOSUNNY   65  56  72 E15       29.68F                  
$$
 
NDZ004>008-012>016-024-026-027-054-200100-
NORTHEAST NORTH DAKOTA
  
CITY           SKY/WX    TMP DP  RH WIND       PRES   REMARKS
GRAND FORKS    LGT RAIN  70  51  51 SE8       29.76S                  
GRND FRKS AFB  PTSUNNY   71  51  49 SE10      29.77S                  
DEVILS LAKE    CLOUDY    69  50  50 S10       29.77F                  
$$
 
NDZ022-023-025-028>030-036>039-047>053-200100-
SOUTHEAST NORTH DAKOTA
  
CITY           SKY/WX    TMP DP  RH WIND       PRES   REMARKS
FARGO          CLOUDY    68  53  58 NW13      29.76S                  
6HR MIN TEMP:  68; 6HR MAX TEMP:  76;                                

JAMESTOWN      LGT RAIN  57  55  93 SE6       29.78F                  
$$